Regional Weather Roundup
Issued by NWS

Home | Current Version | Previous Version | Text Only | Print | Product List | Glossary Off
Versions: 1 2 3 4 5 6 7 8 9 10 11 12 13 14 15 16 17 18 19 20 21 22 23 24 25 26 27 28 29 30 31 32 33 34 35 36 37 38 39 40 41 42 43 44 45 46 47 48 49 50

321
ASUS45 KCYS 262010
RWRWY

WYOMING REGIONAL WEATHER ROUNDUP
NATIONAL WEATHER SERVICE CHEYENNE WY
200 PM MDT FRI AUG 26 2016

NOTE:  "FAIR" INDICATES FEW OR NO CLOUDS BELOW 12,000 FEET
WITH NO SIGNIFICANT WEATHER AND/OR OBSTRUCTIONS TO VISIBILITY.

WYZ001-262100-
YELLOWSTONE NATIONAL PARK

CITY           SKY/WX    TMP DP  RH WIND       PRES   REMARKS
LK YELLOWSTONE   N/A     55  41  59 CALM      30.20F
W YELLOWSTONE  NOT AVBL

$$
WYZ002>013-054>058-071-098>099-262100-
NORTHERN WYOMING

CITY           SKY/WX    TMP DP  RH WIND       PRES   REMARKS
JACKSON        SUNNY     66  34  30 SW7       30.11F
CODY           FAIR      63  39  42 N3        30.08F
GREYBULL       FAIR      72  41  32 E9        30.03F
WORLAND        FAIR      70  41  34 NE3       30.05F
SHERIDAN       FAIR      70  42  36 VRB5      30.05F
BUFFALO        FAIR      69  38  32 MISG      30.10F
GILLETTE       PTSUNNY   70  41  34 CALM      30.05F
HULETT         FAIR      72  43  35 W3        30.06F
NEWCASTLE      MOCLDY    64  46  52 SE7       30.09F

$$
WYZ014>020-022>026-101>103-262100-
CENTRAL WYOMING

CITY           SKY/WX    TMP DP  RH WIND       PRES   REMARKS
BIG PINEY      FAIR      66  35  31 S10       30.16F
PINEDALE       FAIR      66  28  24 SE6       30.17F
DUBOIS         MOCLDY    57  36  44 S14       30.15F
LANDER         FAIR      66  43  43 NW5       30.08F
RIVERTON       FAIR      67  39  35 VRB3      30.08F
CASPER         FAIR      70  43  37 W8        30.09F
DOUGLAS        FAIR      73  42  32 NW13      30.08F

$$
WYZ021-027>030-104>119-262100-
SOUTHERN WYOMING

CITY           SKY/WX    TMP DP  RH WIND       PRES   REMARKS
EVANSTON       FAIR      72  31  22 W18G33    30.14F
FORT BRIDGER   MOCLDY    69  36  30 SE13      30.17F
ROCK SPRINGS   FAIR      73  27  18 W9G20     30.13F
DIXON          FAIR      75  31  20 W9        30.18F
RAWLINS        PTSUNNY   71  23  16 NW13G18   30.15F
SARATOGA       FAIR      72  28  20 W17G24    30.18F
LARAMIE        PTSUNNY   61  43  51 NE14G24   30.18S
CHEYENNE       TSTM      60  46  59 MISG      30.14R
TORRINGTON     FAIR      77  47  34 VRB6      30.04F
PINE BLUFFS    FAIR      73  43  33 S7G17     30.10F

$$




USA.gov is the U.S. government's official web portal to all federal, state and local government web resources and services.